[Iaude] MPEC U03: 2023 TL15 [a=1.17,e=0.27,i=3.6,H=22.8]
    mpec at marsden.cfa.harvard.edu 
    mpec at marsden.cfa.harvard.edu
       
    Mon Oct 16 09:20:13 EDT 2023
    
    
  
M.P.E.C. 2023-U03                              Issued 2023 October 16, 13:18 UT
     The Minor Planet Electronic Circulars contain information on unusual
         minor planets, routine data on comets and natural satellites,
         and occasional editorial announcements.  They are published
    on behalf of Division F of the International Astronomical Union by the
          Minor Planet Center, Smithsonian Astrophysical Observatory,
                          Cambridge, MA 02138, U.S.A.
			  
             Prepared using the Tamkin Foundation Computer Network
                              MPC at CFA.HARVARD.EDU
            URL https://www.minorplanetcenter.net/    ISSN 1523-6714
                                   2023 TL15                                    
Observations:
     K23T15L* C2023 10 13.39560600 26 07.443-02 43 56.46         21.62wXEU003F51
     K23T15L  C2023 10 13.40697100 26 05.745-02 44 14.08         21.43wXEU003F51
     K23T15L  C2023 10 13.41925900 26 03.864-02 44 32.40         21.84wXEU003F51
     K23T15L KC2023 10 13.94496000 24 50.19 -02 58 10.4          21.0 GVEU003598
     K23T15L KC2023 10 13.94904300 24 49.61 -02 58 15.8          21.2 GVEU003598
     K23T15L KC2023 10 13.95312000 24 48.97 -02 58 22.5          21.3 GVEU003598
     K23T15L KC2023 10 14.21359400 24 13.176-03 04 56.78         21.61GVEU003I52
     K23T15L KC2023 10 14.21719900 24 12.640-03 05 02.83         21.07GVEU003I52
     K23T15L KC2023 10 14.21903600 24 12.341-03 05 05.75         21.25GVEU003I52
     K23T15L KC2023 10 14.22087100 24 12.096-03 05 08.84         21.19GVEU003I52
     K23T15L KC2023 10 15.40582100 21 24.370-03 35 17.80               VEU003I52
     K23T15L KC2023 10 15.41034400 21 23.730-03 35 25.80               VEU003I52
     K23T15L KC2023 10 15.41259500 21 23.400-03 35 28.20         21.19GVEU003I52
     K23T15L KC2023 10 16.30030 00 19 20.44 -03 57 52.7          21.7 RVEU003691
     K23T15L KC2023 10 16.31123 00 19 18.83 -03 58 08.2          21.2 RVEU003691
     K23T15L KC2023 10 16.32216 00 19 17.22 -03 58 24.7                VEU003691
Observer details:
598 Loiano.  Observer A. Carbognani.  1.52-m f/4.7 Reflector + CCD.
691 Steward Observatory, Kitt Peak-Spacewatch.  Observer R. A. Mastaler.
    0.9-m f/3 reflector + CCD.
F51 Pan-STARRS 1, Haleakala.  Observers J. Bulger, T. Lowe, P. Minguez, A.
    Schultz, I. Smith.  Measurers K. Chambers, T. de Boer, J. Fairlamb, H.
    Gao, M. Huber, C.-C. Lin, E. Magnier, Y. Ramanjooloo, R. Wainscoat, R.
    Weryk.  1.8-m Ritchey-Chretien + CCD.
I52 Steward Observatory, Mt. Lemmon Station.  Observer J. K. Hogan.  Measurers
    E. C. Beshore, D. Fay, J. B. Fazekas, D. C. Fuls, A. R. Gibbs, A. D.
    Grauer, H. Groeller, J. K. Hogan, R. A. Kowalski, S. M. Larson, G. J.
    Leonard, D. Rankin, R. L. Seaman, F. C. Shelly, K. W. Wierzchos.  1.0-m
    prime focus + CCD.
Orbital elements:
2023 TL15                                                Earth MOID = 0.0403 AU
Epoch 2023 Sept. 13.0 TT = JDT 2460200.5                Veres                   
M 236.74943              (2000.0)            P               Q                  
n   0.77922453     Peri.  327.47537     -0.80498283     -0.59328334             
a   1.1695738      Node   176.12649     +0.55673397     -0.75779264             
e   0.2719715      Incl.    3.55263     +0.20506079     -0.27159748             
P   1.26           H   22.82          G   0.15           U   9                  
Residuals in seconds of arc
231013 F51  0.1-  0.2-    231014 I52  0.0   0.7+    231015 I52  0.2+  0.5-
231013 F51  0.3+  0.3-    231014 I52  0.1+  0.2+    231016 691  0.4-  0.1-
231013 F51  0.0   0.2+    231014 I52  0.2-  0.1+    231016 691  0.2-  0.9+
231013 598  0.2-  0.5-    231014 I52  0.2+  0.2-    231016 691  0.0   0.8+
231013 598  0.2+  0.4+    231015 I52  0.1-  0.3-
231013 598  0.3-  0.1-    231015 I52  0.2+  1.5-
Ephemeris:
2023 TL15                a,e,i = 1.17, 0.27, 4                   q = 0.8515
Date    TT    R. A. (2000) Decl.     Delta      r    Elong.  Phase     V
2023 09 16    01 15 45.9 +07 01 52   0.4121  1.3841   152.4    19.7    22.6
...
2023 10 01    00 53 28.6 +02 24 15   0.3403  1.3399   173.3     5.0    21.5
...
2023 10 09    00 36 19.6 -00 50 57   0.3168  1.3134   171.7     6.3    21.4
...
2023 10 15    00 22 22.6 -03 24 42   0.3065  1.2923   161.9    13.8    21.6
2023 10 16    00 20 02.8 -03 50 01   0.3053  1.2887   160.3    15.1    21.6
2023 10 17    00 17 43.9 -04 15 06   0.3043  1.2850   158.6    16.4    21.7
...
2023 10 23    00 04 24.4 -06 37 58   0.3014  1.2625   148.7    24.1    21.8
...
2023 10 31    23 49 18.6 -09 18 05   0.3041  1.2310   136.3    33.8    22.1
...
2023 11 15    23 32 58.2 -12 22 21   0.3204  1.1681   116.5    49.3    22.5
M. P. C. Staff               (C) Copyright 2023 MPC           M.P.E.C. 2023-U03
    
    
More information about the Iaude
mailing list